User: anonymous   Login
Location: Unspecified
(0.0000°N, 0.0000°E)
Time: 18:22:43
(UTC+00:00)
Language:

NAVSTAR 64 (USA 206) - Orbit

View from above orbital plane
View from above orbital plane
View from above satellite
View from above satellite

Ground track
Ground track

The orbit data is extracted from the following two-line orbital elements,

1 35752U 09043A   17265.61771288 -.00000001  00000-0  00000+0 0  9990
2 35752  54.2645 155.5681 0050796  31.4915 271.3370  2.00576554 59361
Epoch (UTC): 22 September 2017 14:49:30
Eccentricity: 0.0050796
inclination: 54.2645°
perigee height: 20046 km
apogee height: 20316 km
right ascension of ascending node: 155.5681°
argument of perigee: 31.4915°
revolutions per day: 2.00576554
mean anomaly at epoch: 271.3370°
orbit number at epoch: 5936

The dashed part of the orbit path shows where the satellite is in the earth's shadow,  

DLR